Date String (YYYY-MM-DD hh:mm:ss) UTC,Instrument flags,Ambient pressure (hPa),Sample flow (lpm),Bypass flow (lpm),Sample temperature (°C),Ambient temperature (°C),ASC tube jacket temperature (°C),LED temperature (°C),Box temperature (°C),Sample RH (%),Span deviation,Mass concentration (μg/m³),Mass concentration (μg/m³),Mass concentration (μg/m³)
DateTimeUTC,F1_M11,P_M11,Q1_M11,Q2_M11,T1_M11,T2_M11,T3_M11,T4_M11,T5_M11,U1_M11,ZSPAN_M11,X0_M11,X2_M11,X1_M11
2021-09-21 01:00:00,,0830.6,5.00,0.00,29.1,28.4,00.0,38.4,30.8,11.2,0000.0,0011.91,0003.45,0001.78
2021-09-21 01:01:00,,0830.6,5.01,0.00,29.2,28.4,00.0,38.4,30.8,11.0,0000.0,0011.86,0003.40,0001.78
2021-09-21 01:02:00,,0830.6,5.00,0.00,29.2,28.4,00.0,38.4,30.8,10.9,0000.0,0011.67,0003.37,0001.79
2021-09-21 01:03:00,,0830.6,4.99,0.00,29.2,28.4,00.0,38.4,30.8,10.9,0000.0,0011.02,0003.34,0001.79
2021-09-21 01:04:00,,0830.6,5.01,0.00,29.1,28.4,00.0,38.4,30.8,11.0,0000.0,0010.01,0003.33,0001.81
2021-09-21 01:05:00,,0830.6,5.01,0.00,29.1,28.4,00.0,38.4,30.8,11.1,0000.0,0009.61,0003.33,0001.82
2021-09-21 01:06:00,,0830.6,5.00,0.00,29.2,28.5,00.0,38.4,30.9,11.0,0000.0,0010.40,0003.31,0001.82
2021-09-21 01:07:00,,0830.6,5.00,0.00,29.2,28.5,00.0,38.4,30.9,11.0,0000.0,0010.80,0003.29,0001.82
2021-09-21 01:08:00,,0830.7,5.01,0.00,29.2,28.5,00.0,38.4,30.9,11.0,0000.0,0011.58,0003.34,0001.82
2021-09-21 01:09:00,,0830.8,4.99,0.00,29.2,28.5,00.0,38.4,30.9,11.1,0000.0,0012.63,0003.38,0001.82
2021-09-21 01:10:00,,0830.8,4.99,0.00,29.2,28.5,00.0,38.4,30.9,11.1,0000.0,0012.87,0003.38,0001.83
2021-09-21 01:11:00,,0830.7,5.01,0.00,29.2,28.5,00.0,38.4,30.9,11.2,0000.0,0012.58,0003.42,0001.83
2021-09-21 01:12:00,,0830.8,5.00,0.00,29.2,28.5,00.0,38.4,30.9,11.2,0000.0,0013.30,0003.48,0001.84
2021-09-21 01:13:00,,0830.9,5.00,0.00,29.2,28.6,00.0,38.4,30.9,11.3,0000.0,0015.00,0003.52,0001.85
2021-09-21 01:14:00,,0831.0,5.01,0.00,29.2,28.6,00.0,38.4,30.9,11.1,0000.0,0015.99,0003.56,0001.85
2021-09-21 01:15:00,,0830.9,5.01,0.00,29.2,28.6,00.0,38.4,30.9,11.3,0000.0,0016.35,0003.57,0001.86
2021-09-21 01:16:00,,0830.9,4.99,0.00,29.2,28.6,00.0,38.4,30.9,11.3,0000.0,0016.76,0003.57,0001.86
2021-09-21 01:17:00,,0831.1,5.01,0.00,29.2,28.6,00.0,38.4,30.9,11.2,0000.0,0016.75,0003.58,0001.88
2021-09-21 01:18:00,,0831.0,5.00,0.00,29.2,28.6,00.0,38.4,30.9,11.3,0000.0,0016.26,0003.60,0001.90
2021-09-21 01:19:00,,0831.0,4.99,0.00,29.2,28.6,00.0,38.4,30.9,11.3,0000.0,0016.18,0003.60,0001.93
2021-09-21 01:20:00,,0831.2,5.02,0.00,29.2,28.6,00.0,38.4,30.9,11.2,0000.0,0015.50,0003.62,0001.95
2021-09-21 01:21:00,,0831.2,4.98,0.00,29.2,28.6,00.0,38.4,30.9,11.3,0000.0,0014.80,0003.62,0001.97
2021-09-21 01:22:00,,0831.2,5.02,0.00,29.2,28.6,00.0,38.4,30.9,11.3,0000.0,0014.19,0003.58,0001.99
2021-09-21 01:23:00,,0831.2,4.99,0.00,29.3,28.6,00.0,38.4,31.0,11.3,0000.0,0013.65,0003.52,0001.98
2021-09-21 01:24:00,,0831.2,5.02,0.00,29.3,28.6,00.0,38.4,31.0,11.3,0000.0,0012.73,0003.52,0002.00
2021-09-21 01:25:00,,0831.2,5.00,0.00,29.3,28.6,00.0,38.4,31.0,11.2,0000.0,0012.48,0003.54,0002.00
2021-09-21 01:26:00,,0831.3,5.00,0.00,29.3,28.6,00.0,38.4,31.0,11.2,0000.0,0012.09,0003.52,0002.00
2021-09-21 01:27:00,,0831.4,5.01,0.00,29.3,28.7,00.0,38.4,31.0,11.2,0000.0,0011.57,0003.45,0001.98
2021-09-21 01:28:00,,0831.6,4.99,0.00,29.3,28.7,00.0,38.4,31.0,11.3,0000.0,0011.29,0003.41,0001.96
2021-09-21 01:29:00,,0831.6,4.99,0.00,29.3,28.7,00.0,38.4,31.1,11.7,0000.0,0012.09,0003.46,0001.95
2021-09-21 01:30:00,,0831.7,5.00,0.00,29.3,28.7,00.0,38.4,31.1,13.3,0000.0,0012.60,0003.45,0001.94
2021-09-21 01:31:00,,0831.6,5.01,0.00,29.3,28.6,00.0,38.4,31.1,14.1,0000.0,0013.48,0003.42,0001.95
2021-09-21 01:32:00,,0831.6,5.01,0.00,29.3,28.6,00.0,38.4,31.1,14.4,0000.0,0015.78,0003.50,0001.96
2021-09-21 01:33:00,,0831.6,4.99,0.00,29.3,28.6,00.0,38.4,31.0,14.7,0000.0,0016.90,0003.59,0001.99
2021-09-21 01:34:00,,0831.7,5.01,0.00,29.3,28.6,00.0,38.4,31.0,14.9,0000.0,0018.00,0003.72,0002.04
2021-09-21 01:35:00,,0831.7,4.99,0.00,29.3,28.6,00.0,38.4,31.1,15.0,0000.0,0017.49,0003.79,0002.07
2021-09-21 01:36:00,,0831.7,5.01,0.00,29.3,28.6,00.0,38.4,31.0,15.0,0000.0,0019.22,0003.92,0002.12
2021-09-21 01:37:00,,0831.7,4.98,0.00,29.3,28.6,00.0,38.4,31.0,15.2,0000.0,0022.33,0004.06,0002.17
2021-09-21 01:38:00,,0831.8,5.01,0.00,29.3,28.6,00.0,38.4,31.0,15.2,0000.0,0025.37,0004.22,0002.22
2021-09-21 01:39:00,,0831.9,5.00,0.00,29.3,28.6,00.0,38.5,31.1,15.3,0000.0,0026.47,0004.39,0002.26
2021-09-21 01:40:00,,0831.9,5.01,0.00,29.3,28.7,00.0,38.5,31.1,15.4,0000.0,0028.53,0004.49,0002.31
2021-09-21 01:41:00,,0832.0,5.00,0.00,29.3,28.6,00.0,38.5,31.1,15.4,0000.0,0030.72,0004.58,0002.34
2021-09-21 01:42:00,,0832.0,4.98,0.00,29.3,28.6,00.0,38.5,31.0,15.5,0000.0,0032.09,0004.63,0002.34
2021-09-21 01:43:00,,0832.1,5.01,0.00,29.3,28.5,00.0,38.5,31.0,15.5,0000.0,0031.97,0004.62,0002.34
2021-09-21 01:44:00,,0832.1,5.00,0.00,29.3,28.5,00.0,38.4,31.0,15.5,0000.0,0032.33,0004.61,0002.32
2021-09-21 01:45:00,,0832.2,5.00,0.00,29.3,28.6,00.0,38.4,31.1,15.5,0000.0,0031.96,0004.56,0002.31
2021-09-21 01:46:00,,0832.3,5.00,0.00,29.3,28.6,00.0,38.4,31.1,15.7,0000.0,0031.95,0004.54,0002.30
2021-09-21 01:47:00,,0832.4,5.00,0.00,29.3,28.5,00.0,38.4,31.0,15.8,0000.0,0031.08,0004.44,0002.28
2021-09-21 01:48:00,,0832.5,5.00,0.00,29.3,28.5,00.0,38.4,31.0,16.0,0000.0,0028.88,0004.39,0002.25
2021-09-21 01:49:00,,0832.6,4.99,0.00,29.3,28.5,00.0,38.4,31.0,16.0,0000.0,0026.55,0004.38,0002.23
2021-09-21 01:50:00,,0832.6,5.00,0.00,29.3,28.5,00.0,38.4,31.0,16.1,0000.0,0027.02,0004.30,0002.21
2021-09-21 01:51:00,,0832.6,5.00,0.00,29.3,28.4,00.0,38.4,30.9,16.1,0000.0,0027.11,0004.13,0002.19
2021-09-21 01:52:00,,0832.7,5.01,0.00,29.3,28.4,00.0,38.4,31.0,16.1,0000.0,0025.62,0004.11,0002.17
2021-09-21 01:53:00,,0832.7,5.00,0.00,29.2,28.5,00.0,38.4,31.0,16.2,0000.0,0024.14,0004.07,0002.16
2021-09-21 01:54:00,,0832.8,5.00,0.00,29.2,28.5,00.0,38.4,31.0,16.2,0000.0,0022.84,0004.06,0002.15
2021-09-21 01:55:00,,0832.8,5.00,0.00,29.2,28.5,00.0,38.4,31.0,16.1,0000.0,0023.46,0004.02,0002.13
2021-09-21 01:56:00,,0832.9,5.00,0.00,29.2,28.5,00.0,38.4,31.0,15.8,0000.0,0022.75,0003.95,0002.11
2021-09-21 01:57:00,,0833.1,5.01,0.00,29.2,28.5,00.0,38.4,31.0,15.8,0000.0,0022.50,0003.92,0002.07
2021-09-21 01:58:00,,0833.0,5.01,0.00,29.2,28.5,00.0,38.4,31.0,15.8,0000.0,0021.45,0003.89,0002.03
2021-09-21 01:59:00,,0833.1,4.99,0.00,29.2,28.5,00.0,38.4,31.0,15.8,0000.0,0021.27,0003.85,0002.00
